Weather History for KLVN - January, 2012

Change the Weather History Date:

Friday, January 20, 2012

  Actual Average Record
Temperature  
Mean Temperature 2 °F -  
Max Temperature 8 °F 22 °F 44 °F (1964)
Min Temperature -4 °F 2 °F -29 °F (1984)
Degree Days  
Heating Degree Days 63    
Moisture  
Dew Point -3 °F    
Average Humidity 79    
Maximum Humidity 92    
Minimum Humidity 56    
Precipitation  
Precipitation 0.02 in - - ()
Sea Level Pressure  
Sea Level Pressure 30.14 in    
Wind  
Wind Speed 2 mph (ESE)    
Max Wind Speed 8 mph    
Max Gust Speed -    
Visibility 6 miles    
Events Snow    
Averages and records for this station are not official NWS values.
T = Trace of Precipitation, MM = Missing Value Source: NWS Daily Summary

Daily Weather History Graph

Daily Weather History Graph

Search for Another Location

Airport or City:

Trip Planner

Search our weather history database for the weather conditions in past years. The results will help you decide how hot, cold, wet, or windy it might be!

Date:

Astronomy

Jan. 20, 2012 Rise Set
Actual Time 7:43 AM CST 5:04 PM CST
Civil Twilight 7:11 AM CST 5:36 PM CST
Nautical Twilight 6:35 AM CST 6:12 PM CST
Astronomical Twilight 6:00 AM CST 6:47 PM CST
Moon 5:24 AM CST (1/20) 2:34 PM CST (1/20)
Length of Visible Light 10h 25m
Length of Day
9h 21m
Waning Crescent, 8% of the Moon is Illuminated
Jan 20
Waning Crescent
Jan 23
New
Jan 30
First Quarter
Feb 7
Full
Feb 14
Last Quarter

Hourly Weather History & Observations

Time (CST) Temp. Windchill Dew Point Humidity Pressure Visibility Wind Dir Wind Speed Gust Speed Precip Events Conditions
12:06 AM -4.0 °F - -11.2 °F 71% 30.13 in 10.0 mi Calm Calm - N/A   Clear
12:26 AM -4.0 °F - -11.2 °F 71% 30.13 in 10.0 mi Calm Calm - N/A   Clear
12:47 AM -2.2 °F - -9.4 °F 71% 30.13 in 10.0 mi Calm Calm - N/A   Mostly Cloudy
1:06 AM -2.2 °F - -9.4 °F 71% 30.14 in 10.0 mi Calm Calm - N/A   Scattered Clouds
1:26 AM -0.4 °F - -9.4 °F 66% 30.14 in 10.0 mi Calm Calm - N/A   Clear
1:47 AM -0.4 °F - -9.4 °F 66% 30.14 in 10.0 mi Calm Calm - N/A   Clear
2:06 AM -0.4 °F - -9.4 °F 66% 30.13 in 10.0 mi Calm Calm - N/A   Clear
2:47 AM 1.4 °F - -9.4 °F 61% 30.13 in 10.0 mi Calm Calm - N/A   Clear
3:06 AM 1.4 °F - -11.2 °F 56% 30.13 in 10.0 mi Calm Calm - N/A   Mostly Cloudy
3:27 AM 1.4 °F - -9.4 °F 61% 30.12 in 10.0 mi Calm Calm - N/A   Mostly Cloudy
3:46 AM 1.4 °F - -11.2 °F 56% 30.11 in 10.0 mi Calm Calm - N/A   Mostly Cloudy
4:07 AM 1.4 °F - -9.4 °F 61% 30.09 in 10.0 mi Calm Calm - N/A   Mostly Cloudy
4:26 AM 1.4 °F - -9.4 °F 61% 30.10 in 10.0 mi Calm Calm - N/A   Mostly Cloudy
4:46 AM 1.4 °F - -9.4 °F 61% 30.11 in 10.0 mi Calm Calm - N/A   Scattered Clouds
5:07 AM 1.4 °F -6.2 °F -7.6 °F 66% 30.11 in 10.0 mi ESE 3.5 mph - N/A   Scattered Clouds
5:27 AM 1.4 °F - -5.8 °F 72% 30.11 in 2.0 mi Calm Calm - N/A Snow Light Snow
5:46 AM 1.4 °F -6.2 °F -2.2 °F 85% 30.12 in 1.8 mi SE 3.5 mph - N/A Snow Light Snow
6:07 AM 1.4 °F -6.2 °F -2.2 °F 85% 30.12 in 2.0 mi SE 3.5 mph - N/A Snow Light Snow
6:26 AM 1.4 °F -8.3 °F -2.2 °F 85% 30.12 in 2.5 mi SE 4.6 mph - N/A Snow Light Snow
6:46 AM 1.4 °F -8.3 °F -2.2 °F 85% 30.12 in 2.5 mi ESE 4.6 mph - N/A Snow Light Snow
7:07 AM 1.4 °F -8.3 °F -2.2 °F 85% 30.11 in 2.5 mi East 4.6 mph - N/A Snow Light Snow
7:27 AM 1.4 °F -9.9 °F -2.2 °F 85% 30.11 in 1.2 mi East 5.8 mph - N/A Snow Light Snow
7:46 AM 1.4 °F -8.3 °F -2.2 °F 85% 30.11 in 1.0 mi ESE 4.6 mph - 0.01 in Snow Light Snow
7:55 AM 1.4 °F -9.9 °F -0.4 °F 92% 30.11 in 1.0 mi ESE 5.8 mph - 0.01 in Snow Light Snow
8:07 AM 1.4 °F -11.3 °F -2.2 °F 85% 30.11 in 0.8 mi East 6.9 mph - N/A Snow Light Snow
8:27 AM 1.4 °F -11.3 °F -0.4 °F 92% 30.12 in 1.0 mi East 6.9 mph - N/A Snow Light Snow
8:46 AM 1.4 °F -12.5 °F -0.4 °F 92% 30.11 in 1.0 mi East 8.1 mph - N/A Snow Light Snow
9:07 AM 1.4 °F -11.3 °F -2.2 °F 85% 30.12 in 1.5 mi East 6.9 mph - N/A Snow Light Snow
9:26 AM 1.4 °F -12.5 °F -0.4 °F 92% 30.13 in 1.0 mi East 8.1 mph - N/A Snow Light Snow
9:46 AM 1.4 °F -12.5 °F -0.4 °F 92% 30.13 in 1.0 mi East 8.1 mph - 0.01 in Snow Light Snow
9:55 AM 1.4 °F -12.5 °F -0.4 °F 92% 30.13 in 1.0 mi East 8.1 mph - 0.01 in Snow Light Snow
10:07 AM 1.4 °F -12.5 °F -0.4 °F 92% 30.13 in 1.0 mi East 8.1 mph - N/A Snow Light Snow
10:26 AM 3.2 °F -7.8 °F -0.4 °F 85% 30.14 in 1.0 mi ESE 5.8 mph - N/A Snow Light Snow
10:46 AM 3.2 °F -6.2 °F -0.4 °F 85% 30.15 in 1.2 mi ESE 4.6 mph - N/A Snow Light Snow
11:06 AM 3.2 °F -9.1 °F -0.4 °F 85% 30.15 in 1.5 mi ESE 6.9 mph - N/A Snow Light Snow
11:26 AM 3.2 °F -7.8 °F -0.4 °F 85% 30.15 in 1.5 mi ESE 5.8 mph - N/A Snow Light Snow
11:47 AM 3.2 °F -4.2 °F -0.4 °F 85% 30.15 in 1.2 mi East 3.5 mph - N/A Snow Light Snow
12:06 PM 5.0 °F -4.1 °F -0.4 °F 78% 30.14 in 1.2 mi ESE 4.6 mph - N/A Snow Light Snow
12:26 PM 5.0 °F -4.1 °F -0.4 °F 78% 30.14 in 2.0 mi East 4.6 mph - N/A Snow Light Snow
12:47 PM 6.8 °F -0.1 °F -0.4 °F 72% 30.14 in 2.5 mi SE 3.5 mph - N/A Snow Light Snow
1:06 PM 6.8 °F -0.1 °F 1.4 °F 79% 30.13 in 4.0 mi ESE 3.5 mph - N/A Snow Light Snow
1:27 PM 6.8 °F -2.0 °F 1.4 °F 79% 30.12 in 3.0 mi SE 4.6 mph - N/A Snow Light Snow
1:46 PM 6.8 °F -0.1 °F 1.4 °F 79% 30.12 in 5.0 mi East 3.5 mph - N/A Snow Light Snow
2:07 PM 8.6 °F - 1.4 °F 73% 30.13 in 4.0 mi Calm Calm - N/A Snow Light Snow
2:26 PM 8.6 °F 0.1 °F 1.4 °F 73% 30.13 in 5.0 mi ENE 4.6 mph - N/A Snow Light Snow
2:46 PM 8.6 °F - 1.4 °F 73% 30.13 in 10.0 mi Calm Calm - N/A   Scattered Clouds
3:06 PM 6.8 °F - 1.4 °F 79% 30.12 in 10.0 mi Calm Calm - N/A   Scattered Clouds
3:47 PM 6.8 °F - 1.4 °F 79% 30.13 in 7.0 mi Calm Calm - N/A Snow Light Snow
4:06 PM 6.8 °F -0.1 °F 1.4 °F 79% 30.14 in 10.0 mi NNE 3.5 mph - N/A   Mostly Cloudy
4:26 PM 6.8 °F - 1.4 °F 79% 30.14 in 10.0 mi Calm Calm - N/A   Overcast
4:47 PM 5.0 °F - -0.4 °F 78% 30.15 in 10.0 mi Calm Calm - N/A   Scattered Clouds
5:06 PM 3.2 °F - -0.4 °F 85% 30.15 in 10.0 mi Calm Calm - N/A   Scattered Clouds
5:26 PM 3.2 °F - -0.4 °F 85% 30.16 in 10.0 mi Calm Calm - N/A   Overcast
5:46 PM 5.0 °F - -0.4 °F 78% 30.17 in 10.0 mi Calm Calm - N/A   Mostly Cloudy
6:06 PM 3.2 °F - -0.4 °F 85% 30.18 in 10.0 mi Calm Calm - N/A   Scattered Clouds
6:27 PM 3.2 °F - -0.4 °F 85% 30.18 in 10.0 mi Calm Calm - N/A   Mostly Cloudy
6:46 PM 3.2 °F - -0.4 °F 85% 30.18 in 10.0 mi Calm Calm - N/A   Overcast
7:06 PM 3.2 °F - -0.4 °F 85% 30.18 in 10.0 mi Calm Calm - N/A   Overcast
7:27 PM 3.2 °F - -0.4 °F 85% 30.18 in 10.0 mi Calm Calm - N/A   Unknown
7:46 PM 1.4 °F - -0.4 °F 92% 30.19 in 10.0 mi Calm Calm - N/A   Mostly Cloudy
8:06 PM 1.4 °F - -2.2 °F 85% 30.19 in 10.0 mi Calm Calm - N/A   Mostly Cloudy
8:27 PM -2.2 °F - -5.8 °F 85% 30.20 in 10.0 mi Calm Calm - N/A   Scattered Clouds
8:46 PM -0.4 °F - -4.0 °F 85% 30.21 in 10.0 mi Calm Calm - N/A   Clear
9:06 PM -0.4 °F - -2.2 °F 92% 30.21 in 10.0 mi Calm Calm - N/A   Clear
9:27 PM -4.0 °F - -7.6 °F 85% 30.21 in 10.0 mi Calm Calm - N/A   Clear
9:46 PM -5.8 °F - -9.4 °F 84% 30.21 in 10.0 mi Calm Calm - N/A   Clear
10:06 PM -5.8 °F - -7.6 °F 92% 30.22 in 10.0 mi Calm Calm - N/A   Clear
10:26 PM -4.0 °F - -5.8 °F 92% 30.21 in 10.0 mi Calm Calm - N/A   Clear
10:47 PM -5.8 °F - -9.4 °F 84% 30.21 in 10.0 mi Calm Calm - N/A   Clear
11:07 PM -5.8 °F - -7.6 °F 92% 30.21 in 7.0 mi Calm Calm - N/A   Clear
11:26 PM -5.8 °F - -9.4 °F 84% 30.22 in 10.0 mi Calm Calm - N/A   Clear
11:47 PM -5.8 °F - -9.4 °F 84% 30.23 in 10.0 mi Calm Calm - N/A   Clear